Wind_Speed
18 18 19 19 18 19 20 21 21 20 19 18 18 18 18 18 18 19 19 18 18 19 19 19 19 20 20 20 21 21 20 20 21 21 21 22 22 23 23 23 22 23 23 22
20 19 20 20 20 20 20 21 21 20 19 19 20 20 20 19 19 20 20 20 19 19 20 20 20 21 21 21 21 21 21 21 21 22 23 23 23 23 24 24 24 24 24 23
20 20 21 21 21 21 21 21 22 22 21 21 21 21 21 21 21 21 22 22 21 21 21 22 22 23 22 22 22 22 22 22 22 23 23 24 24 24 25 25 25 25 25 24
21 21 22 21 21 22 23 23 23 22 22 21 21 22 22 23 22 22 22 22 22 22 23 24 23 23 24 24 24 24 23 24 24 24 24 25 25 25 25 25 25 25 25 24
22 22 21 19 20 21 22 23 22 22 21 22 22 22 22 22 22 23 23 23 24 24 25 25 25 25 25 25 25 25 24 24 25 25 25 26 27 26 26 26 26 26 25 25
23 23 21 18 19 21 22 21 20 21 21 21 22 23 22 23 23 23 24 24 25 25 25 25 25 25 25 25 25 25 25 26 26 27 27 27 27 27 27 27 27 27 27 27
24 24 23 20 20 20 22 21 21 21 21 21 22 23 23 23 23 23 24 24 25 25 26 26 26 26 26 26 26 27 27 27 27 27 28 28 28 28 27 27 28 28 28 29
24 24 23 22 22 22 22 22 23 23 22 23 23 24 24 24 25 25 25 25 25 26 26 27 27 27 27 27 27 28 28 27 28 27 28 28 28 28 28 28 29 30 30 30
24 24 23 23 23 23 23 23 23 25 24 24 24 24 25 25 26 26 26 27 26 26 27 27 28 28 27 28 28 28 28 27 27 27 27 27 28 28 29 29 30 30 30 30
25 24 24 24 24 24 24 24 25 25 25 25 25 26 26 25 26 27 27 28 28 28 28 28 27 27 28 28 28 28 28 27 27 27 27 27 28 28 29 29 30 30 30 29
26 25 25 24 24 24 24 25 25 25 25 26 26 26 27 27 28 28 27 27 28 28 28 28 28 28 28 28 28 28 27 27 26 26 26 26 27 27 28 28 28 29 29 29
26 25 26 25 25 25 25 25 26 27 27 27 28 27 28 28 28 29 29 29 29 29 29 28 28 28 28 27 27 27 26 26 25 25 25 26 27 27 27 28 28 28 29 30
27 28 28 27 26 26 26 26 27 28 28 28 28 28 29 28 28 29 29 29 29 29 28 28 28 28 27 27 27 26 26 25 25 25 25 26 27 28 28 28 28 29 29 29
28 29 29 28 28 28 28 28 28 29 29 29 29 30 30 30 29 29 29 29 29 29 28 28 27 27 27 27 27 26 26 26 26 26 25 25 26 27 28 29 29 29 29 29
29 30 30 30 30 30 30 29 29 29 30 30 30 31 31 31 31 30 29 29 29 28 28 28 27 27 27 27 27 26 26 26 27 27 27 27 27 27 28 28 29 29 29 29
30 30 30 30 30 30 29 29 29 30 30 30 30 31 31 30 30 29 28 28 28 28 28 28 27 27 27 26 26 26 26 26 27 28 28 27 28 27 27 26 27 28 28 29
30 30 30 30 29 28 29 29 29 30 29 30 30 30 29 29 29 29 28 27 27 27 28 28 28 28 27 26 26 27 27 27 27 27 27 27 27 27 27 27 27 27 28 29
30 30 30 29 28 28 28 29 29 29 29 29 29 29 29 29 29 29 28 28 27 27 27 27 28 27 27 27 26 27 27 26 26 26 26 26 26 27 27 28 28 27 27 27
29 29 28 28 28 28 28 28 28 29 28 28 28 28 28 28 28 28 28 28 28 28 27 27 27 27 27 27 27 26 26 26 26 26 26 26 27 27 27 28 28 27 28 28
28 27 27 27 27 28 27 27 28 28 27 27 27 27 27 27 27 27 27 27 28 28 28 27 27 26 26 25 25 25 25 26 26 27 27 27 28 28 28 28 29 29 29 29
26 26 26 26 27 27 27 27 27 26 26 26 26 27 27 27 26 26 26 26 27 27 27 27 27 27 26 26 26 26 27 27 28 28 28 28 28 27 27 28 29 29 29 28
24 24 25 26 26 27 27 27 26 26 26 26 26 26 26 26 26 27 27 27 26 27 27 27 27 27 27 27 27 27 28 29 29 29 29 29 29 29 29 29 29 29 28 28
23 24 24 25 25 25 25 25 25 25 25 26 26 25 25 26 26 26 26 26 26 26 27 27 28 28 28 28 28 28 29 29 29 29 29 29 29 30 30 29 30 29 29 29
23 23 24 24 24 25 25 25 26 26 26 26 25 25 25 25 25 25 26 26 26 27 27 28 28 29 29 29 29 30 30 30 30 29 30 30 30 29 29 29 29 29 29 28
23 23 23 24 24 24 25 24 25 25 25 26 26 25 25 25 25 26 27 27 27 27 27 28 28 29 29 29 29 29 29 29 29 30 30 29 29 28 28 29 29 29 29 28
23 24 24 24 23 24 24 25 25 25 25 25 25 25 25 26 27 27 27 27 27 27 27 28 28 28 29 29 29 29 29 29 29 29 29 29 29 29 29 29 29 29 29 29
24 24 24 24 24 24 24 25 25 25 25 26 26 26 26 27 27 27 27 27 27 28 28 28 29 29 29 29 28 28 29 29 29 29 29 30 30 30 30 29 29 29 29 29
Wind_Direction
265 263 261 259 259 261 262 264 265 265 268 268 269 273 276 278 279 279 280 281 285 288 289 290 290 291 292 289 286 283 282 282 280 278 279 280 281 283 284 285 286 288 288 288
263 260 259 259 261 261 261 260 263 265 267 268 269 271 273 275 277 277 280 283 285 287 288 288 288 290 291 289 286 283 282 282 281 279 279 281 280 282 284 286 287 288 289 286
260 258 259 257 258 260 263 263 264 264 266 267 267 269 270 272 274 276 278 281 284 285 286 288 289 288 289 288 287 285 283 282 282 281 280 281 281 281 282 284 286 287 288 287
263 259 258 261 260 261 262 263 265 266 266 266 268 269 271 273 274 276 277 280 283 285 285 286 286 285 287 287 286 285 283 282 282 281 281 281 282 281 281 282 284 286 286 286
265 263 261 261 261 263 264 265 265 267 268 269 269 270 272 274 275 276 278 280 283 284 285 286 286 285 286 287 285 283 282 283 282 281 281 282 282 281 280 281 283 285 285 283
266 267 265 262 263 264 262 263 263 266 270 271 270 272 274 275 277 278 278 279 281 282 284 286 286 286 286 286 286 286 285 284 282 281 281 280 281 280 279 279 281 284 284 284
265 268 268 265 264 264 262 264 263 265 268 270 272 274 275 276 276 279 279 279 281 282 283 284 286 286 286 286 286 286 285 284 284 283 282 282 281 281 280 280 281 283 283 282
264 266 267 266 266 265 265 264 264 266 268 271 273 274 274 274 276 279 279 280 281 283 284 284 285 285 285 285 285 286 285 284 283 283 283 282 281 281 281 281 283 285 283 282
264 266 267 266 267 268 268 267 266 267 269 273 274 274 274 276 277 278 279 280 281 283 284 284 284 283 285 286 286 286 285 285 284 283 283 282 281 282 282 281 282 285 285 284
264 266 267 266 266 268 270 270 270 271 271 273 275 275 276 277 277 277 280 282 283 284 284 284 284 284 286 287 287 286 286 285 285 285 284 283 282 282 284 284 284 283 283 283
263 266 268 268 268 269 270 271 272 273 273 273 275 276 275 276 276 277 279 282 284 285 285 283 283 284 285 286 287 287 286 286 284 284 284 284 285 285 287 286 285 284 284 283
263 264 266 267 267 268 269 270 271 273 273 273 273 273 276 276 275 276 278 281 283 284 284 283 283 283 283 285 286 285 284 285 285 285 286 286 286 286 286 287 288 286 285 285
263 263 264 265 265 266 267 269 271 273 274 272 272 272 274 277 276 276 278 280 283 283 283 283 283 282 283 284 285 285 284 284 284 286 286 285 286 287 287 287 287 287 286 285
263 263 264 265 266 267 269 270 272 272 273 273 274 275 275 276 278 278 277 279 281 282 283 284 284 283 283 284 284 285 285 285 285 284 285 286 287 288 288 287 287 287 286 284
262 263 264 265 267 269 271 272 272 272 273 274 275 277 278 278 277 278 277 277 279 280 282 283 283 283 283 283 283 284 286 286 285 284 284 285 288 288 287 286 287 287 286 286
262 265 265 266 267 269 271 272 272 273 274 273 274 277 278 279 279 279 277 277 277 278 280 280 281 282 282 282 283 285 286 286 286 285 285 285 287 287 287 287 289 288 287 288
261 264 266 266 267 268 269 271 273 274 274 273 275 276 277 277 278 279 278 276 276 276 278 279 279 279 281 283 284 286 286 285 286 285 285 286 287 287 287 289 290 289 288 288
262 264 265 266 266 267 269 270 272 273 273 274 275 276 276 276 277 277 276 275 275 276 278 279 278 279 280 282 284 286 286 285 285 285 287 288 288 288 288 289 289 289 289 290
263 264 266 267 267 268 269 270 271 272 273 274 275 275 275 276 276 275 275 275 276 276 277 278 279 281 282 281 281 283 283 284 285 286 287 290 291 289 288 288 288 288 289 289
263 263 264 266 267 269 270 271 272 272 272 274 274 274 275 276 276 274 274 275 276 276 277 278 280 282 281 280 281 282 284 286 287 288 288 290 291 291 289 288 288 288 288 287
262 261 263 266 267 269 270 271 272 272 274 275 274 274 275 275 275 274 275 275 275 276 277 278 279 281 282 282 282 283 285 286 288 289 289 290 291 291 292 291 291 290 290 290
265 264 266 267 268 269 270 270 271 272 274 274 274 275 274 273 274 274 275 276 277 277 276 277 278 279 281 282 282 282 284 285 286 288 288 289 289 289 290 291 291 290 289 290
268 267 267 267 268 269 269 270 271 272 274 274 275 276 275 274 275 275 275 276 277 277 277 277 277 279 281 282 282 283 284 285 286 287 288 289 288 289 289 290 290 290 289 290
269 268 268 268 268 269 270 270 272 273 273 274 276 276 276 276 274 274 275 276 276 277 278 279 279 280 282 282 283 284 284 285 285 286 288 288 289 289 289 290 291 291 290 290
267 267 268 269 270 271 272 272 273 273 273 273 275 276 275 276 275 275 276 278 278 278 279 281 281 281 281 282 282 282 282 283 284 285 287 288 288 288 289 290 291 290 290 289
267 268 270 272 272 272 274 275 275 274 274 273 272 272 274 276 277 277 277 279 279 279 280 282 282 281 281 282 283 283 283 284 285 285 285 286 288 288 288 288 290 290 290 289
266 268 270 271 272 273 273 274 275 275 274 273 272 272 274 275 276 277 278 279 280 280 281 282 282 281 280 281 283 283 284 285 284 284 284 285 285 286 287 288 288 288 288 289
Height
5785 5785 5784 5784 5785 5785 5785 5785 5785 5787 5787 5788 5788 5787 5787 5787 5787 5786 5786 5785 5784 5783 5782 5780 5779 5777 5775 5773 5772 5770 5769 5768 5767 5765 5764 5763 5762 5760 5759 5758 5756 5754 5752 5750
5779 5779 5778 5779 5779 5779 5779 5779 5780 5780 5781 5782 5782 5782 5781 5781 5780 5780 5780 5779 5778 5777 5776 5774 5773 5771 5770 5768 5766 5764 5763 5761 5760 5758 5757 5756 5755 5754 5752 5751 5749 5747 5745 5743
5772 5773 5772 5773 5774 5773 5773 5774 5774 5775 5776 5776 5776 5776 5775 5774 5774 5774 5774 5773 5772 5771 5770 5768 5767 5765 5763 5761 5759 5758 5756 5755 5753 5752 5750 5749 5748 5746 5745 5744 5742 5740 5738 5736
5766 5767 5766 5770 5768 5768 5767 5768 5768 5768 5769 5769 5769 5769 5769 5768 5767 5767 5767 5766 5765 5764 5763 5761 5760 5758 5756 5755 5753 5751 5749 5748 5746 5745 5743 5742 5740 5739 5737 5736 5734 5733 5731 5729
5759 5759 5760 5762 5762 5761 5761 5761 5762 5762 5762 5762 5762 5762 5762 5762 5761 5760 5760 5759 5758 5757 5755 5754 5752 5751 5749 5747 5745 5743 5742 5740 5739 5737 5736 5734 5733 5731 5730 5728 5727 5725 5723 5721
5753 5752 5753 5757 5756 5754 5755 5755 5756 5756 5756 5756 5755 5755 5756 5755 5754 5753 5752 5752 5751 5749 5748 5746 5745 5743 5741 5739 5737 5735 5734 5732 5731 5729 5728 5726 5724 5723 5721 5720 5718 5716 5715 5713
5746 5745 5746 5749 5748 5748 5749 5751 5750 5749 5749 5749 5749 5749 5748 5747 5746 5745 5744 5744 5743 5741 5740 5738 5736 5735 5733 5731 5729 5727 5726 5724 5722 5721 5719 5717 5716 5714 5713 5711 5710 5708 5706 5705
5740 5739 5743 5742 5741 5742 5742 5742 5742 5742 5742 5742 5741 5741 5740 5739 5738 5738 5737 5736 5734 5733 5732 5730 5728 5727 5725 5723 5721 5719 5717 5715 5714 5712 5710 5709 5707 5706 5704 5703 5701 5699 5697 5696
5734 5735 5735 5734 5734 5734 5734 5735 5735 5735 5735 5735 5734 5733 5733 5732 5731 5730 5729 5728 5726 5725 5724 5722 5720 5718 5717 5715 5713 5710 5708 5706 5704 5703 5701 5700 5698 5697 5695 5694 5692 5691 5689 5687
5725 5726 5727 5727 5727 5727 5727 5727 5727 5727 5727 5726 5726 5725 5725 5724 5723 5722 5721 5719 5718 5717 5715 5713 5712 5710 5708 5706 5704 5702 5699 5697 5696 5694 5692 5691 5690 5688 5687 5685 5683 5682 5680 5678
5717 5719 5719 5719 5720 5720 5719 5719 5719 5719 5719 5718 5718 5717 5716 5715 5715 5713 5712 5711 5709 5708 5706 5705 5703 5701 5699 5697 5695 5693 5691 5689 5687 5685 5683 5682 5681 5680 5678 5676 5674 5673 5671 5670
5710 5711 5711 5711 5712 5711 5711 5711 5711 5711 5710 5710 5709 5708 5708 5707 5706 5704 5703 5702 5700 5699 5697 5696 5694 5692 5690 5689 5687 5685 5683 5681 5679 5677 5675 5674 5672 5671 5669 5668 5666 5663 5662 5661
5702 5702 5702 5703 5703 5703 5703 5703 5703 5702 5701 5701 5700 5699 5699 5697 5696 5695 5693 5692 5691 5689 5688 5687 5685 5683 5682 5680 5678 5676 5675 5673 5671 5669 5667 5665 5664 5662 5660 5659 5657 5655 5653 5651
5693 5693 5693 5694 5694 5694 5694 5694 5694 5693 5692 5692 5691 5690 5689 5688 5687 5686 5684 5682 5681 5680 5679 5677 5676 5674 5673 5671 5669 5668 5666 5664 5662 5660 5658 5656 5655 5653 5651 5650 5648 5646 5644 5642
5684 5684 5685 5685 5685 5685 5685 5684 5684 5684 5683 5683 5682 5681 5680 5678 5677 5676 5675 5673 5672 5671 5670 5668 5667 5666 5664 5663 5661 5659 5658 5656 5654 5651 5650 5648 5646 5644 5642 5641 5639 5637 5635 5633
5674 5674 5675 5675 5676 5675 5675 5675 5674 5674 5673 5673 5672 5671 5670 5669 5668 5666 5665 5664 5663 5662 5661 5660 5658 5657 5656 5654 5652 5651 5649 5647 5645 5643 5641 5639 5637 5635 5633 5632 5630 5628 5627 5625
5664 5665 5665 5666 5666 5666 5666 5666 5665 5664 5663 5663 5662 5662 5661 5659 5658 5657 5656 5655 5654 5653 5652 5651 5650 5648 5647 5646 5644 5642 5641 5639 5637 5634 5632 5630 5629 5627 5625 5623 5622 5620 5618 5616
5655 5655 5656 5656 5656 5656 5656 5656 5656 5655 5654 5653 5653 5652 5651 5650 5649 5648 5647 5646 5645 5644 5643 5642 5641 5640 5639 5637 5636 5634 5632 5630 5629 5626 5624 5622 5621 5619 5617 5615 5613 5611 5609 5607
5645 5646 5646 5647 5647 5647 5647 5647 5646 5646 5645 5644 5643 5642 5642 5641 5640 5639 5638 5637 5636 5635 5635 5633 5632 5631 5629 5628 5627 5626 5624 5622 5621 5619 5617 5615 5613 5611 5609 5607 5605 5603 5601 5599
5636 5637 5637 5638 5638 5638 5638 5638 5637 5636 5636 5635 5634 5633 5632 5632 5631 5630 5629 5628 5627 5626 5626 5625 5623 5622 5621 5620 5619 5617 5616 5614 5613 5611 5608 5606 5605 5602 5600 5598 5596 5594 5593 5591
5627 5628 5628 5629 5629 5629 5629 5629 5628 5628 5627 5626 5625 5624 5624 5623 5622 5621 5620 5619 5618 5617 5616 5616 5615 5614 5613 5612 5610 5609 5608 5606 5604 5602 5600 5598 5596 5594 5592 5590 5588 5586 5584 5582
5619 5619 5620 5620 5620 5620 5620 5620 5619 5619 5618 5617 5617 5615 5614 5614 5613 5612 5611 5610 5609 5609 5608 5607 5606 5605 5604 5603 5602 5600 5599 5597 5596 5594 5592 5590 5588 5586 5584 5582 5580 5578 5576 5574
5611 5611 5611 5612 5612 5611 5611 5611 5611 5610 5610 5609 5608 5607 5606 5605 5604 5603 5603 5602 5601 5600 5599 5598 5597 5596 5595 5594 5592 5591 5590 5588 5586 5585 5583 5581 5579 5577 5575 5573 5571 5569 5567 5565
5603 5603 5603 5603 5603 5603 5603 5602 5602 5601 5601 5600 5599 5598 5597 5596 5596 5595 5594 5593 5592 5591 5590 5589 5588 5586 5585 5584 5583 5581 5580 5578 5577 5575 5573 5571 5569 5567 5566 5564 5562 5560 5558 5556
5596 5595 5595 5595 5595 5594 5594 5593 5593 5593 5592 5592 5591 5590 5589 5588 5587 5586 5585 5584 5583 5582 5581 5580 5578 5577 5576 5574 5573 5572 5571 5569 5567 5566 5564 5562 5560 5558 5556 5555 5553 5551 5549 5547
5588 5588 5587 5587 5587 5586 5585 5585 5584 5584 5583 5583 5582 5581 5580 5580 5579 5577 5576 5575 5574 5573 5572 5570 5569 5568 5566 5565 5564 5562 5561 5559 5558 5556 5554 5553 5551 5549 5547 5545 5544 5542 5540 5538
5580 5579 5579 5579 5578 5578 5577 5576 5576 5575 5575 5574 5573 5573 5572 5571 5570 5569 5568 5566 5565 5564 5562 5561 5560 5558 5557 5555 5554 5553 5551 5550 5548 5546 5545 5543 5541 5540 5538 5536 5534 5532 5531 5529